This is the latest recevied weather packets stored in our database for station/object K8JMX-13. If no packets are shown the sender has not sent any weather packets the latest 10 day(s).
| Time | Temp. | Humidity | Pressure | Rain* | Wind** | Luminosity | Snow |
|---|---|---|---|---|---|---|---|
| 1777894941 | 10.56° C | 63% | 1008.6 hPa | 0 mm | - | 33 W/m² | - |
| 1777894639 | 10.56° C | 63% | 1008.5 hPa | 0 mm | - | 35 W/m² | - |
| 1777894335 | 10.56° C | 64% | 1008.5 hPa | 0 mm | - | 28 W/m² | - |
| 1777894033 | 10.56° C | 64% | 1008.6 hPa | 0 mm | - | 23 W/m² | - |
| 1777893729 | 10° C | 65% | 1008.4 hPa | 0 mm | - | 21 W/m² | - |
| 1777893425 | 10° C | 66% | 1008.3 hPa | 0 mm | - | 19 W/m² | - |
| 1777893122 | 9.44° C | 66% | 1008.4 hPa | 0 mm | - | 19 W/m² | - |
| 1777892819 | 9.44° C | 67% | 1008.5 hPa | 0 mm | - | 16 W/m² | - |
| 1777892515 | 9.44° C | 66% | 1008.2 hPa | 0 mm | - | 14 W/m² | - |
| 1777892210 | 9.44° C | 66% | 1008.4 hPa | 0 mm | - | 12 W/m² | - |
| 1777891908 | 9.44° C | 67% | 1008.3 hPa | 0 mm | - | 10 W/m² | - |
| 1777891605 | 9.44° C | 66% | 1008.3 hPa | 0 mm | - | 8 W/m² | - |
| 1777891302 | 9.44° C | 65% | 1008.4 hPa | 0 mm | - | 6 W/m² | - |
| 1777891002 | 10° C | 65% | 1008.3 hPa | 0 mm | - | 4 W/m² | - |
| 1777890696 | 10° C | 64% | 1008.4 hPa | 0 mm | - | 3 W/m² | - |
| 1777890392 | 10° C | 65% | 1008.4 hPa | 0 mm | - | 1 W/m² | - |
| 1777890088 | 10° C | 64% | 1008.4 hPa | 0 mm | - | 1 W/m² | - |
| 1777889786 | 10° C | 64% | 1008.5 hPa | 0 mm | - | 0 W/m² | - |
| 1777889483 | 10° C | 64% | 1008.5 hPa | 0 mm | - | 0 W/m² | - |
| 1777889181 | 10° C | 64% | 1008.8 hPa | 0 mm | - | 0 W/m² | - |
| 1777888879 | 10° C | 64% | 1008.6 hPa | 0 mm | - | 0 W/m² | - |
| 1777888575 | 10° C | 64% | 1008.9 hPa | 0 mm | - | 0 W/m² | - |
| 1777888271 | 10° C | 64% | 1008.8 hPa | 0 mm | - | 0 W/m² | - |
| 1777887968 | 10° C | 64% | 1009.1 hPa | 0 mm | - | 0 W/m² | - |
| 1777887665 | 10° C | 63% | 1009 hPa | 0 mm | - | 0 W/m² | - |
* Rain latest hour (hover to see other rain measurements)
** Current wind speed in m/s (hover to see current wind gust speed)